Location: Gudip?du
(17.0263°N, 80.8301°E)
Time: 06:34:39
(UTC+00:00)

SL-16 R/B - Pass Details

Date: 03 August 2024
Orbit: 841 x 847 km, 71.0° (Epoch: 10 September)

Event Time Altitude Azimuth Distance (km) Brightness Sun altitude
Exits shadow 23:18:18 11° 206° (SSW) 2,392 4.1 -14.1°
Maximum altitude 23:23:42 64° 287° (WNW) 930 2.2 -12.9°
Drops below altitude 10° 23:29:19 10° 9° (N) 2,465 5.1 -11.6°
Sets 23:31:48 0° 12° (NNE) 3,402 5.9 -11.1°
